STARLINK-36385

Last updated on Tue Mar 10 2026 00:02:05 GMT+0000 (Coordinated Universal Time)

1 67717U 26025AA 26068.26465448 .00624536 00000+0 29988-2 0 9997 2 67717 97.2847 179.9814 0002284 155.1678 204.9701 15.81071114 5888
UTC large
Height (km)
Speed (km/s)
/
Latitude / Longitude
Inclination (degrees)
Orbital Period (minutes)
Azimuth
Elevation
Range (km)
Doppler Factor

Next 0 passes for location: London (51.5072 / 0.1276)

Sorry there are no passes over London.